Regional Weather Roundup
Issued by NWS

Home | Current Version | Previous Version | Text Only | Print | Product List | Glossary On
Versions: 1 2 3 4 5 6 7 8 9 10 11 12 13 14 15 16 17 18 19 20 21 22 23 24 25 26 27 28 29 30 31 32 33 34 35 36 37 38 39 40 41 42 43 44 45 46 47 48 49 50
000
ASPQ40 PGUM 270312
RWRPQ
WEATHER ROUNDUP FOR THE MARIANAS AND MICRONESIA
NATIONAL WEATHER SERVICE TIYAN GU
100 PM CHST MON MAR 27 2017

GUZ001>004-270400-
MARIANA ISLANDS-

CITY           SKY/WX    TMP DP  RH WIND       PRES   REMARKS
GUAM AIRPORT   MOSUNNY   88  73  62 E15       29.95F HX  96
ANDERSEN AFB   PTSUNNY   84  75  74 E14       29.97F HX  92
ROTA AIRPORT   MOSUNNY   82  73  74 E14       29.96F
TINIAN AP      MOSUNNY   84  75  74 NE16      29.94F HX  92
SAIPAN AP      MOSUNNY   88  73  62 E18       29.95F HX  96

$$

PMZ161-270400-
REPUBLIC OF PALAU-

CITY           SKY/WX    TMP DP  RH WIND       PRES   REMARKS
KOROR AP       PTSUNNY   86  77  74 E9G17     29.89F HX  97
KOROR WSO      CLOUDY    88  77  70 E5        29.89F HX 100

$$

PMZ171>174-270400-
FEDERATED STATES OF MICRONESIA-

CITY           SKY/WX    TMP DP  RH WIND       PRES   REMARKS
YAP AIRPORT    CLOUDY    88  79  74 NE10      29.91S HX 102
CHUUK AP       PTSUNNY   88  82  84 NE12      29.82F HX 108
POHNPEI AP     CLOUDY    86  77  74 E17       29.78F HX  97
POHNPEI WSO    CLOUDY    86  75  70 NE14      29.82F HX  95
KOSRAE AP      CLOUDY    84  77  79 NE20      29.77F HX  94

$$

PMZ181-270400-
REPUBLIC OF THE MARSHALL ISLANDS-

CITY           SKY/WX    TMP DP  RH WIND       PRES   REMARKS
KWAJALEIN AP   PTSUNNY   88  75  66 NE22G28   29.81S HX  97
MAJURO AP      CLOUDY    81  75  83 E15       29.80F
MAJURO WSO     LGT RAIN  81  77  89 E14       29.79F

$$




USA.gov is the U.S. government's official web portal to all federal, state and local government web resources and services.